Muskogee, OK

5:37 PM CDT on June 23, 2017 (GMT -0500)
Davis

Weather History for KMKO - May, 2013

Change the Weather History Date:

Thursday, May 9, 2013

  Actual Average Record
Temperature  
Mean Temperature 65 °F -  
Max Temperature 75 °F 76 °F 87 °F (2011)
Min Temperature 57 °F 54 °F 48 °F (2012)
Growing Degree Days 15 (Base 50)    
Moisture  
Dew Point 63 °F    
Average Humidity 94    
Maximum Humidity 100    
Minimum Humidity 68    
Precipitation  
Precipitation 0.71 in - - ()
Sea Level Pressure  
Sea Level Pressure 29.95 in    
Wind  
Wind Speed 8 mph (SSW)    
Max Wind Speed 29 mph    
Max Gust Speed 40 mph    
Visibility 7 miles    
Events Rain , Thunderstorm    
Averages and records for this station are not official NWS values.
T = Trace of Precipitation, MM = Missing Value Source: NWS Daily Summary

Daily Weather History Graph

Daily Weather History Graph

Search for Another Location

Airport or City:

Trip Planner

Search our weather history database for the weather conditions in past years. The results will help you decide how hot, cold, wet, or windy it might be!

Date:

Astronomy

May. 09, 2013 Rise Set
Actual Time 6:21 AM CDT 8:14 PM CDT
Civil Twilight 5:53 AM CDT 8:42 PM CDT
Nautical Twilight 5:19 AM CDT 9:16 PM CDT
Astronomical Twilight 4:43 AM CDT 9:53 PM CDT
Moon 6:05 AM CDT (5/9) 8:11 PM CDT (5/9)
Length of Visible Light 14h 49m
Length of Day
13h 53m
Waning Crescent, 0% of the Moon is Illuminated
May 9
Waning Crescent
May 9
New
May 17
First Quarter
May 24
Full
May 31
Last Quarter

Hourly Weather History & Observations

Time (CDT) Temp. Dew Point Humidity Pressure Visibility Wind Dir Wind Speed Gust Speed Precip Events Conditions
12:26 AM 64.4 °F 62.6 °F 94% 29.98 in 9.0 mi SSW 8.1 mph - 0.03 in Rain , Thunderstorm Light Rain
12:53 AM 64.9 °F 61.0 °F 87% 29.98 in 4.0 mi SW 9.2 mph 25.3 mph 0.15 in Rain , Thunderstorm Heavy Thunderstorms and Rain
1:27 AM 62.6 °F 62.6 °F 100% 29.93 in 10.0 mi East 8.1 mph - 0.07 in Rain Light Rain
1:53 AM 63.0 °F 62.1 °F 97% 29.92 in 10.0 mi North 6.9 mph - 0.07 in   Scattered Clouds
2:53 AM 63.0 °F 62.1 °F 97% 29.90 in 8.0 mi East 6.9 mph - N/A   Partly Cloudy
3:53 AM 62.1 °F 62.1 °F 100% 29.89 in 10.0 mi SSE 4.6 mph - N/A   Scattered Clouds
4:53 AM 62.1 °F 61.0 °F 96% 29.88 in 10.0 mi South 8.1 mph - N/A   Scattered Clouds
5:11 AM 62.6 °F 57.2 °F 82% 30.01 in 10.0 mi WNW 28.8 mph 40.3 mph N/A Thunderstorm Mostly Cloudy
5:20 AM 59.0 °F 57.2 °F 94% 30.01 in 5.0 mi WNW 19.6 mph 35.7 mph 0.05 in Rain , Thunderstorm Rain
5:31 AM 57.2 °F 57.2 °F 100% 30.01 in 2.0 mi WNW 8.1 mph - 0.25 in Rain , Thunderstorm Heavy Thunderstorms and Rain
5:49 AM 57.2 °F 57.2 °F 100% 29.99 in 7.0 mi West 5.8 mph - 0.34 in Rain , Thunderstorm Light Thunderstorms and Rain
5:53 AM 57.9 °F 57.0 °F 97% 29.98 in 5.0 mi West 3.5 mph - 0.35 in Rain , Thunderstorm Thunderstorms and Rain
6:18 AM 59.0 °F 57.2 °F 94% 29.99 in 10.0 mi South 3.5 mph - 0.02 in Rain Light Rain
7:34 AM 57.2 °F 57.2 °F 100% 29.94 in 10.0 mi SSE 19.6 mph 26.5 mph 0.07 in Rain , Thunderstorm Light Thunderstorms and Rain
7:53 AM 59.0 °F 57.9 °F 96% 29.96 in 10.0 mi Variable 4.6 mph 21.9 mph 0.07 in Rain , Thunderstorm Light Rain
8:08 AM 60.8 °F 57.2 °F 88% 29.96 in 10.0 mi South 4.6 mph - 0.00 in   Scattered Clouds
8:53 AM 60.1 °F 59.0 °F 96% 29.96 in 10.0 mi SSW 5.8 mph - 0.00 in   Partly Cloudy
9:53 AM 63.0 °F 61.0 °F 93% 29.97 in 10.0 mi SSE 6.9 mph - N/A   Overcast
10:53 AM 68.0 °F 63.0 °F 84% 29.96 in 10.0 mi SE 9.2 mph - N/A   Scattered Clouds
12:53 PM 73.0 °F 62.1 °F 68% 29.95 in 10.0 mi South 13.8 mph - N/A   Mostly Cloudy
1:53 PM 72.0 °F 63.0 °F 73% 29.94 in 10.0 mi South 8.1 mph - N/A   Overcast
2:49 PM 71.6 °F 64.4 °F 78% 29.96 in 10.0 mi SSW 9.2 mph - N/A   Overcast
2:53 PM 71.1 °F 64.9 °F 81% 29.94 in 10.0 mi SSW 10.4 mph - N/A   Overcast
3:53 PM 66.9 °F 64.9 °F 93% 29.94 in 7.0 mi SSW 9.2 mph - 0.00 in   Overcast
4:06 PM 66.2 °F 64.4 °F 94% 29.94 in 5.0 mi SSW 8.1 mph - N/A   Overcast
4:25 PM 66.2 °F 66.2 °F 100% 29.95 in 6.0 mi South 6.9 mph - N/A   Overcast
4:41 PM 66.2 °F 66.2 °F 100% 29.95 in 6.0 mi South 8.1 mph - N/A   Overcast
4:53 PM 66.9 °F 66.0 °F 97% 29.95 in 4.0 mi South 6.9 mph - N/A   Overcast
5:02 PM 66.2 °F 66.2 °F 100% 29.95 in 6.0 mi SSW 8.1 mph - N/A   Overcast
5:11 PM 66.2 °F 66.2 °F 100% 29.95 in 7.0 mi SSW 6.9 mph - N/A   Overcast
5:31 PM 68.0 °F 66.2 °F 94% 29.94 in 7.0 mi SSW 8.1 mph - 0.00 in Rain Light Rain
5:49 PM 66.2 °F 66.2 °F 100% 29.94 in 2.0 mi SW 8.1 mph - 0.05 in Rain Heavy Rain
5:53 PM 66.9 °F 66.0 °F 97% 29.93 in 2.5 mi SW 8.1 mph - 0.05 in Rain Light Rain
6:01 PM 66.2 °F 66.2 °F 100% 29.94 in 5.0 mi WSW 5.8 mph - 0.01 in Rain Light Rain
6:39 PM 68.0 °F 66.2 °F 94% 29.93 in 5.0 mi South 4.6 mph - 0.01 in   Partly Cloudy
7:53 PM 68.0 °F 66.0 °F 93% 29.90 in 6.0 mi East 3.5 mph - N/A   Clear
8:53 PM 66.0 °F 66.0 °F 100% 29.91 in 4.0 mi NNW 4.6 mph - N/A   Scattered Clouds
9:53 PM 66.0 °F 66.0 °F 100% 29.93 in 5.0 mi North 3.5 mph - N/A   Overcast
10:23 PM 66.2 °F 64.4 °F 94% 29.95 in 4.0 mi North 4.6 mph - N/A Thunderstorm Mostly Cloudy
10:53 PM 64.9 °F 64.9 °F 100% 29.94 in 3.0 mi Calm Calm - N/A   Scattered Clouds
11:26 PM 64.4 °F 64.4 °F 100% 29.96 in 2.0 mi Calm Calm - 0.02 in Rain Light Rain
11:37 PM 64.4 °F 64.4 °F 100% 29.96 in 2.0 mi South 4.6 mph - 0.02 in Rain Light Rain
11:53 PM 64.9 °F 64.9 °F 100% 29.94 in 2.5 mi South 4.6 mph - 0.02 in   Overcast